Weather in Novgorodsky

Russia / Bryansk Oblast     53°13′20″N   35°00′17″E
temp.,
°C
wind,
m/s
gust,
m/s
humid.,
%
clouds,
%
prec.,
mm/h
press.,
hPa
HPBL,
m
13 may, thu
thu1300:00+7ese410965 0.0 1016281
03:00+7e412956 0.0 1015409
06:00+8ese4129599 0.2 1015672
09:00+11se6982100 0.4 1014978
12:00+12sse588096 1.3 10141102
15:00+14s686295 2.2 10131691
18:00+14s4768100 0.4 10131249
21:00+9sse3789100 0.4 1014133
14 may, fri
fri1400:00+7se2390100 0.0 101446
03:00+7se3795100 0.0 1014121
06:00+9ese3888100 0.0 1014170
09:00+15se4873100 0.0 1013461
12:00+19se5975100 1.0 1012880
15:00+20sse587757 4.4 10101162
18:00+19sse59844 2.5 1008674
21:00+15sse31295100 7.1 1008262
15 may, sat
sat1500:00+13sse26965 0.8 1008120
03:00+12sse24965 0.8 100883
06:00+12s399639 0.0 1009250
09:00+15ssw47808 0.0 1009581
12:00+19ssw46584 0.0 10101360
15:00+18ssw477099 0.6 1010897
18:00+18ssw477259 0.7 1010972
21:00+13s38937 0.8 1011176
16 may, sun
sun1600:00+11ssw28965 0.0 1011197
03:00+9ssw38977 0.0 1012232
06:00+9ssw38953 0.0 1013263
09:00+15wsw34710 0.0 1014572
12:00+19sw33564 0.0 10141201
15:00+21s3351100 0.0 10131629
18:00+20sse236014 0.0 10131040
21:00+14ese228471 0.0 101319
17 may, mon
mon1700:00+13e36905 0.0 101398
03:00+12ene41188100 0.0 1012235
06:00+14ene51587100 0.4 1010456
09:00+19e61374100 0.4 1009611
12:00+24ese711539 0.0 1007964
15:00+25ese71355100 0.0 10061272
18:00+23se61463100 0.0 10061601
21:00+19ese5137840 0.1 1006489